Theta_e
309 310 310 311 310 310 310 309 310 309 309 311 314 314 314 315 317 319 321 324 324 324 325 325 325 325 320 309 310 327 329 330 327 323 318 316 312 309 303 304 305 302 304 307 308 307 305
310 310 310 310 310 311 311 310 309 309 310 311 312 314 313 314 316 318 320 321 323 323 323 325 325 323 312 299 317 327 324 322 323 320 317 317 313 313 307 305 302 305 306 305 306 306 306
311 311 310 311 311 311 312 311 310 309 309 311 310 312 313 313 314 317 318 321 322 322 323 324 324 318 309 304 318 320 320 319 323 323 316 317 316 312 309 304 308 306 300 303 303 305 304
311 311 311 311 311 311 311 312 311 310 311 311 310 311 312 313 313 315 317 320 321 321 322 323 323 314 302 314 314 318 319 317 321 324 322 322 319 314 310 310 305 301 299 293 301 304 305
310 311 311 311 311 311 311 312 311 312 312 311 311 310 310 312 312 312 316 318 319 320 321 321 313 309 298 315 308 313 318 314 317 321 321 323 317 309 307 300 296 296 290 293 296 303 303
309 309 310 310 310 311 311 312 312 312 312 311 311 310 310 312 311 311 313 317 318 318 317 316 313 301 304 302 308 311 317 317 313 315 314 312 309 301 299 296 289 291 292 294 292 296 298
309 309 309 309 309 310 310 311 312 312 312 311 311 310 310 310 311 310 311 311 303 303 308 302 302 301 303 307 311 308 316 314 312 309 300 306 299 295 296 299 298 295 292 291 293 299 298
309 309 309 308 309 309 310 310 311 312 312 311 311 310 310 311 311 310 309 303 304 307 297 305 306 304 306 308 301 305 316 306 304 297 302 299 294 299 302 302 299 297 294 291 295 298 296
309 309 309 309 308 309 310 310 311 311 312 311 310 310 310 310 310 308 303 303 309 311 296 298 304 303 303 306 300 300 309 305 300 297 298 293 295 301 298 295 295 294 293 292 292 295 295
312 309 309 309 309 309 310 310 310 311 312 311 311 310 310 310 302 302 299 306 309 311 290 291 297 301 303 304 298 306 310 303 300 295 296 296 299 297 295 293 293 289 295 295 294 290 284
312 311 310 309 309 309 309 309 310 310 310 311 310 310 310 308 298 298 301 306 310 305 276 293 297 307 303 298 299 299 309 304 294 296 296 291 294 294 294 294 296 292 297 296 294 290 288
311 311 311 310 309 308 308 309 309 310 310 310 310 310 309 304 299 302 306 306 304 285 276 290 296 295 295 297 298 300 302 305 301 295 294 293 297 296 295 298 298 300 297 295 293 293 284
311 310 311 309 308 309 308 309 309 310 310 310 309 309 306 304 295 304 304 300 284 278 288 287 290 294 293 292 295 297 295 294 289 287 286 290 292 296 298 294 296 296 291 279 281 281 279
312 312 311 308 307 308 308 309 310 310 310 310 309 309 305 302 302 304 300 287 277 281 285 292 292 293 289 293 293 294 293 291 294 291 286 284 281 293 297 294 292 292 291 282 275 276 279
310 310 310 309 308 309 309 309 309 310 310 310 309 302 297 300 303 300 291 279 279 283 288 289 291 287 287 291 292 292 291 290 293 293 285 284 283 293 295 296 295 290 288 292 283 279 278
310 309 309 308 308 309 309 309 310 309 310 309 300 298 295 301 302 296 285 281 282 288 290 291 285 288 284 288 288 289 289 293 292 295 295 289 281 291 294 296 296 292 294 285 284 276 269
310 309 308 308 308 309 309 309 310 309 309 307 297 288 297 302 296 285 275 274 280 288 290 287 287 287 287 288 288 287 289 292 295 294 296 292 288 286 293 290 289 291 289 290 289 284 277
309 308 308 308 308 309 309 310 309 309 308 298 290 283 299 298 279 277 270 272 286 286 290 288 287 286 287 289 288 288 287 291 297 296 290 293 288 282 288 293 296 294 291 291 283 278 282
308 308 308 309 309 309 309 310 310 309 303 294 285 287 298 293 272 272 271 277 283 283 285 286 285 289 286 285 286 289 290 294 296 295 292 293 287 279 281 288 290 289 292 292 291 286 283
307 307 307 308 305 305 307 308 308 306 303 295 286 281 286 288 280 275 272 272 274 285 285 287 286 287 285 283 285 287 288 292 294 296 297 297 287 284 280 281 287 285 288 291 289 284 284
307 307 306 306 305 305 304 303 303 302 301 294 285 281 282 280 280 278 281 278 274 275 285 287 283 284 283 280 284 285 290 290 294 296 296 293 284 287 287 285 286 286 287 288 287 288 284
306 306 305 304 304 304 304 303 303 302 300 290 284 284 285 282 281 280 280 275 279 279 283 283 281 284 287 283 286 283 289 289 289 291 293 293 281 285 281 286 286 284 286 288 288 288 288
306 305 305 305 304 304 304 303 302 302 297 289 290 290 285 279 274 277 279 279 279 282 285 288 287 285 284 286 290 292 294 295 293 291 290 290 286 283 279 283 283 280 285 286 287 289 288
306 305 305 304 304 304 303 303 301 301 298 290 291 290 284 274 278 280 281 282 281 282 281 287 288 287 292 296 295 292 290 290 290 290 292 287 286 284 281 277 274 283 288 289 287 288 290
307 306 305 304 304 304 304 303 303 303 301 297 294 290 285 279 283 283 283 282 285 287 286 285 289 292 297 291 285 283 280 283 284 285 286 288 284 281 279 278 280 282 285 284 284 285 290
305 306 306 306 305 304 304 304 304 304 303 298 294 296 292 283 282 285 283 286 280 284 284 286 290 294 294 286 283 276 275 275 274 277 285 288 288 284 273 276 272 283 288 289 288 279 289
302 303 305 305 306 305 305 305 305 305 305 297 292 294 293 283 285 285 284 285 287 285 282 284 286 286 290 281 275 274 273 277 272 270 277 282 282 281 281 278 278 284 285 287 278 281 287
300 300 302 304 304 305 304 304 303 303 304 295 290 292 290 285 285 282 284 283 286 285 280 284 283 284 283 278 273 276 275 277 273 275 275 278 278 279 278 277 275 286 284 282 285 285 284
298 299 299 301 302 303 303 303 303 303 303 302 291 293 294 286 286 287 286 287 286 286 285 284 282 280 284 276 274 272 270 269 270 270 280 274 279 274 278 277 284 284 285 285 286 286 285
Wind_Speed
15 11 13 16 15 10 12 12 12 11 12 9 8 4 3 5 7 4 5 4 7 8 7 7 7 4 2 3 5 5 2 4 4 3 2 2 2 2 3 3 5 4 2 3 5 5 1
19 17 15 15 13 13 13 13 12 12 12 10 9 6 4 3 7 6 6 4 6 7 8 8 7 5 1 5 3 7 3 4 6 3 3 4 6 3 4 5 3 1 2 3 5 5 2
21 20 17 20 17 15 13 14 14 13 14 11 9 7 5 2 2 6 6 6 5 6 8 8 8 3 2 9 2 4 3 2 1 2 3 6 4 2 4 3 3 2 1 5 1 5 3
21 21 21 20 21 18 17 15 17 16 14 12 9 9 8 6 0 6 6 6 5 7 4 7 7 2 5 5 8 2 1 1 2 2 0 3 2 1 2 5 3 5 3 2 5 6 5
21 22 21 21 20 20 20 20 18 18 16 14 11 9 7 9 4 2 6 6 6 7 9 8 2 3 5 2 5 9 2 2 2 1 1 2 3 2 1 3 2 2 3 5 6 9 7
25 24 23 21 21 21 20 19 21 19 18 15 14 12 10 10 9 3 5 5 4 5 8 5 2 4 5 5 5 6 5 1 3 3 2 2 2 3 2 4 8 6 7 5 6 3 7
28 28 25 24 23 21 20 20 22 22 19 18 15 14 13 11 12 7 3 4 4 2 6 5 7 3 3 2 5 5 6 4 3 2 5 4 5 12 9 8 4 3 3 4 3 6 8
29 28 27 27 24 22 21 20 20 21 22 20 17 16 14 12 15 11 1 4 2 1 4 10 3 10 1 4 3 4 9 7 7 9 4 3 14 7 7 8 7 6 6 4 6 4 1
31 30 28 26 25 23 21 20 19 21 21 21 19 18 14 12 14 9 7 4 6 7 3 6 10 7 4 6 4 8 13 5 4 9 12 11 4 14 7 6 8 6 9 3 5 7 4
34 33 29 26 24 22 20 19 19 19 20 22 21 20 16 13 7 4 6 2 1 2 2 4 13 8 6 4 3 5 13 6 5 12 6 10 13 5 11 8 8 9 6 6 4 3 5
31 32 30 26 23 20 19 17 16 17 17 21 21 21 19 15 5 8 4 8 2 2 7 9 11 6 13 12 10 6 10 2 6 8 8 8 10 16 12 11 8 6 6 8 9 6 3
29 28 31 27 22 21 19 18 17 15 17 20 21 22 20 12 2 7 6 4 3 6 9 8 7 15 15 17 8 5 6 4 4 4 3 9 1 10 11 6 7 7 5 5 5 3 10
29 24 27 28 23 21 19 18 16 17 15 23 23 23 15 8 6 7 8 3 7 12 4 6 9 16 22 12 13 10 15 15 9 9 11 4 10 2 3 12 3 7 7 0 3 5 9
25 25 27 27 23 21 19 17 18 17 17 22 23 22 10 5 5 8 8 4 8 8 7 2 5 14 18 10 17 13 13 17 15 5 7 9 5 13 7 8 10 8 13 7 8 5 4
13 19 25 24 22 20 19 18 18 14 19 23 24 5 5 4 6 4 3 6 2 3 7 6 4 8 9 12 7 17 21 20 18 15 7 8 7 4 5 4 11 7 14 6 3 3 2
17 20 21 19 18 17 17 17 16 14 22 27 8 7 4 7 8 7 2 3 4 1 4 1 8 5 11 16 15 15 15 17 13 17 3 5 1 4 7 5 6 7 6 6 5 4 4
22 18 15 16 15 14 15 17 16 18 25 22 7 5 5 11 7 4 3 6 3 3 5 1 1 5 7 10 16 14 6 8 24 18 12 3 4 1 7 9 14 7 8 6 4 7 6
27 17 12 10 10 12 13 18 18 23 28 12 4 4 6 9 5 2 4 7 4 1 3 4 3 2 7 15 15 16 14 14 19 17 23 8 5 5 13 2 9 19 13 14 6 7 6
28 28 26 18 17 8 13 18 22 30 19 6 4 3 2 4 4 2 4 0 3 2 2 6 7 5 4 8 9 13 14 11 17 20 17 13 5 3 2 3 3 7 12 12 14 0 10
26 26 28 32 32 33 32 19 20 23 14 6 5 5 2 1 2 8 4 3 2 5 3 4 3 2 4 7 11 12 13 4 10 21 10 16 5 13 18 6 8 8 12 16 16 11 19
22 24 25 26 27 28 28 27 24 20 10 4 4 1 1 6 7 2 5 6 6 4 5 7 3 13 7 6 9 9 17 6 6 13 14 11 9 13 16 4 3 8 16 16 18 25 18
19 19 20 20 21 22 21 21 18 13 12 6 4 4 2 2 4 9 8 6 8 3 8 6 11 9 13 8 9 7 8 10 10 4 15 5 5 6 7 7 9 8 6 12 22 19 16
15 16 16 17 16 15 15 13 12 12 9 4 1 2 3 4 4 6 9 9 6 7 7 7 11 11 12 17 6 14 10 4 5 11 15 12 6 5 8 3 4 8 22 23 16 17 16
16 11 12 12 11 12 12 10 9 8 7 4 2 3 3 5 6 11 7 12 16 12 20 3 10 12 4 8 4 9 9 7 6 3 5 7 12 5 9 4 11 11 8 19 23 22 21
17 14 8 5 6 5 4 2 2 6 4 2 3 3 3 4 9 12 15 11 10 12 15 14 7 5 2 10 2 3 3 3 5 4 3 3 5 4 8 13 7 9 13 10 12 22 17
17 17 12 6 4 3 4 7 7 8 1 3 2 2 2 1 3 1 9 10 4 4 5 4 3 2 4 3 4 3 5 3 2 7 3 1 3 7 2 9 14 17 25 9 5 6 21
17 16 15 15 5 2 6 10 5 6 10 3 0 2 1 1 1 1 2 7 3 1 1 1 2 3 2 2 3 2 3 7 6 9 9 7 6 14 14 14 7 11 7 6 10 15 6
17 16 15 13 11 9 8 8 8 6 6 3 1 3 2 1 1 2 1 3 3 3 3 3 3 2 2 2 3 3 3 6 2 4 8 11 7 10 7 10 14 8 3 11 6 2 2
17 17 15 13 11 8 6 6 6 7 5 1 0 1 1 3 1 2 0 1 3 1 1 1 3 2 3 3 1 2 1 2 3 6 2 3 9 6 9 8 7 6 7 5 5 6 5
Wind_Direction
282 270 263 278 284 265 249 252 248 244 248 256 252 231 295 326 328 278 275 246 226 209 198 186 187 187 223 221 251 186 229 101 111 102 177 239 259 215 218 268 350 190 254 11 139 103 4
293 286 277 277 269 272 244 247 247 251 245 237 252 225 215 308 329 295 267 256 237 204 198 192 183 151 235 218 284 167 107 41 26 165 188 232 232 329 268 250 157 273 112 303 234 168 189
286 282 280 278 269 261 255 245 242 241 244 236 235 236 189 195 18 313 278 255 221 233 201 198 172 157 234 225 100 73 93 107 20 10 239 232 265 242 326 315 301 105 49 352 245 190 223
285 279 277 273 275 266 263 248 236 238 238 236 226 215 213 188 1 346 305 254 226 198 227 188 170 154 234 235 240 12 123 280 283 321 340 310 104 92 228 319 11 134 79 125 266 190 230
278 273 271 272 266 263 260 254 248 236 232 231 208 209 215 206 189 348 325 257 222 200 174 145 99 185 247 276 184 205 141 281 205 313 345 341 65 180 236 129 39 295 181 201 278 216 197
285 279 274 270 265 261 255 250 248 241 230 223 209 195 205 211 205 229 321 195 212 126 128 85 335 77 282 203 160 163 152 232 186 184 100 112 135 173 153 133 200 198 209 230 210 265 204
279 277 274 272 268 258 252 247 244 238 226 223 208 197 205 211 195 204 310 143 140 174 213 168 146 160 180 278 114 167 137 136 190 218 177 208 169 202 192 192 203 196 204 211 279 290 221
272 268 267 262 259 256 251 246 239 236 225 213 205 193 197 210 194 186 58 221 141 135 177 224 197 214 110 154 113 165 136 172 178 190 199 168 225 197 187 201 207 234 257 263 286 260 234
272 265 257 252 251 250 245 242 237 230 225 209 199 189 190 195 192 153 203 273 359 3 209 188 201 198 163 153 180 196 176 178 168 191 201 206 242 187 193 193 190 214 222 203 234 311 265
258 255 251 245 242 241 239 236 232 226 225 202 191 182 181 174 194 143 212 115 117 20 250 202 189 220 149 112 266 178 179 154 201 206 181 238 246 206 208 216 178 226 184 212 249 304 255
269 242 239 236 234 229 226 227 225 218 208 192 186 179 174 156 149 177 161 141 176 80 220 185 163 176 156 168 134 202 173 223 199 181 178 215 188 216 222 211 186 227 173 219 214 211 261
286 250 225 218 219 218 215 217 216 205 197 189 183 174 168 171 102 158 114 100 162 204 212 183 138 173 164 192 167 108 159 217 192 225 244 224 221 196 202 185 180 153 93 48 42 81 249
284 248 209 203 208 207 205 205 202 201 196 186 177 166 156 141 187 168 123 181 198 215 146 192 188 178 181 171 163 166 177 190 181 181 209 183 232 227 169 196 143 150 121 341 209 212 238
307 201 187 187 195 194 195 197 193 190 180 170 164 155 154 150 145 128 155 179 213 176 184 224 186 167 189 146 199 182 168 193 213 206 153 181 205 195 190 199 196 182 178 166 196 212 238
65 134 158 175 179 184 184 183 181 187 179 169 149 125 123 167 144 111 109 202 210 148 161 149 175 178 201 183 158 178 206 205 195 195 165 177 247 159 199 155 155 200 207 175 61 10 61
82 114 140 155 166 175 174 175 177 175 159 152 128 133 154 140 110 76 176 247 196 338 18 87 204 200 180 184 185 198 185 196 199 205 217 200 145 197 170 135 242 176 143 182 204 210 250
75 101 124 142 156 167 177 175 169 163 150 129 93 114 166 121 77 69 183 220 281 247 120 96 296 226 205 185 191 199 201 190 195 187 208 227 119 262 126 197 184 174 187 210 179 199 204
58 66 82 120 145 164 174 172 165 156 134 86 98 108 149 130 84 149 174 179 220 124 116 133 105 261 261 195 193 205 215 209 195 179 203 191 163 188 203 229 218 210 192 187 193 220 236
59 62 61 73 79 90 171 164 159 146 132 111 85 79 185 87 150 217 309 67 137 262 169 159 187 172 64 7 228 203 206 206 189 189 184 175 202 124 342 295 297 212 221 217 208 143 227
54 63 65 73 80 76 74 101 126 126 118 97 111 122 79 52 139 137 130 245 210 227 253 183 210 196 254 304 312 218 232 210 188 199 192 170 168 211 223 204 142 202 209 214 218 230 240
60 66 74 79 83 82 82 83 82 88 69 75 35 93 186 158 222 122 149 179 157 199 224 211 233 211 176 235 281 255 202 181 206 187 187 172 214 217 242 206 186 206 211 214 218 228 227
59 68 79 83 86 83 85 96 111 114 88 69 114 135 74 95 136 173 209 229 197 186 173 204 238 216 176 222 203 310 216 192 186 170 195 210 242 156 259 238 226 245 230 228 231 242 251
63 69 73 79 86 88 95 94 87 79 77 102 83 35 124 180 133 154 215 210 219 200 239 221 215 244 214 220 229 255 237 201 203 178 187 180 175 142 239 226 117 240 233 235 235 232 235
45 63 72 78 76 76 78 81 84 80 77 122 146 116 135 248 188 202 199 199 214 212 230 214 217 233 223 64 71 266 37 60 62 59 194 173 203 189 240 87 240 244 203 217 230 235 236
38 42 50 96 91 83 72 133 205 205 186 79 130 151 183 236 217 213 204 206 207 233 230 231 224 248 108 54 38 114 357 20 341 281 245 149 160 204 230 231 284 299 254 202 204 243 242
36 38 41 50 194 233 345 36 44 47 155 142 135 226 246 264 245 140 185 193 190 224 170 204 254 186 103 153 220 144 160 129 280 314 3 128 354 206 150 229 233 242 251 206 117 257 245
21 27 30 30 51 137 67 39 40 18 9 73 80 21 142 322 289 64 147 203 120 219 278 147 215 130 167 147 91 144 222 171 176 181 180 187 211 225 227 237 242 249 236 89 160 238 287
16 16 17 23 32 51 53 35 22 11 8 80 221 7 102 224 252 152 191 125 182 175 166 208 72 333 72 95 120 240 150 213 154 213 181 182 187 218 219 241 247 222 95 197 246 259 217
10 13 10 7 10 19 20 14 357 337 336 28 350 352 20 127 218 102 154 283 16 161 299 307 171 170 165 100 4 78 269 24 138 255 135 242 193 179 178 213 231 237 228 230 197 224 242